DW0425 Hajer DK current weather conditions

sailwx.info

Wind from 298 at 0 knots gusting 2

Air temperature 12.8° C
Dewpoint 11.8° C

Last reported at 2018-Oct-17 18:31 UTC.
Time now 2018-Oct-17 20:08 UTC

Location: N 54°58' E 008°41'.
View on Google Maps.

See reports from other nearby stations

  
Tides and Currents Weather Stations Pressure Air Temp Water Temp Dewpoint Dewpoint Depression Visibility Wind Speed Wind Dir Waves Ship Positions
date/time (UTC)wind fromknots sea level pressurealtimeterstation pressurevisibilityair tempwater tempwave heightnotes
2018-Oct-17 18:31 298 0 gusting 2 12.8
2018-Oct-17 18:16 298 0 gusting 1 13.3
2018-Oct-17 17:16 292 2 gusting 5 14.4
2018-Oct-17 17:01 306 3 gusting 6 14.4
2018-Oct-17 16:46 281 5 gusting 7 15.0
2018-Oct-17 16:31 289 5 gusting 6 14.4
2018-Oct-17 15:46 306 3 gusting 6 15.6
2018-Oct-17 15:31 315 4 gusting 6 15.6
2018-Oct-17 15:16 290 6 gusting 10 15.6
2018-Oct-17 15:01 311 5 gusting 8 16.1
2018-Oct-17 14:31 302 4 gusting 6 16.7
2018-Oct-17 13:46 240 2 gusting 4 17.2
2018-Oct-17 13:31 233 3 gusting 4 17.2
2018-Oct-17 13:16 225 3 gusting 6 17.2
2018-Oct-17 12:46 224 3 gusting 6 17.2
2018-Oct-17 12:31 231 3 gusting 6 17.2
2018-Oct-17 12:16 219 4 gusting 6 17.2
2018-Oct-17 11:46 232 3 gusting 7 17.2
2018-Oct-17 11:31 198 5 gusting 9 17.2
2018-Oct-17 11:01 221 4 gusting 6 17.2
2018-Oct-17 10:01 186 5 gusting 9 16.7
2018-Oct-17 09:46 187 4 gusting 8 15.6
2018-Oct-17 09:31 223 4 gusting 8 15.6
2018-Oct-17 09:01 190 4 gusting 7 15.6
2018-Oct-17 08:46 179 4 gusting 6 15.0
2018-Oct-17 07:46 167 4 gusting 6 13.3
2018-Oct-17 07:16 177 3 gusting 6 13.3
2018-Oct-17 06:16 143 3 gusting 7 12.8
2018-Oct-17 06:01 148 4 gusting 6 12.8
2018-Oct-17 05:31 150 4 gusting 6 12.8
2018-Oct-17 04:46 140 4 gusting 6 12.8
2018-Oct-17 04:31 128 4 gusting 6 12.8
2018-Oct-17 03:31 126 3 gusting 5 12.8
2018-Oct-17 03:16 138 1 gusting 3 12.2
2018-Oct-17 03:01 138 1 gusting 3 12.2
2018-Oct-17 02:31 138 1 gusting 2 12.8
2018-Oct-17 01:46 173 3 gusting 6 13.3
2018-Oct-17 01:16 175 3 gusting 5 13.3
2018-Oct-17 00:31 160 4 gusting 6 13.3
2018-Oct-17 00:16 157 4 gusting 6 13.3
2018-Oct-17 00:01 144 4 gusting 6 13.3
2018-Oct-16 23:46 142 4 gusting 6 12.8
2018-Oct-16 23:31 144 4 gusting 7 12.8
2018-Oct-16 23:16 159 4 gusting 6 12.8
2018-Oct-16 23:01 148 4 gusting 6 12.8
2018-Oct-16 22:46 121 4 gusting 7 12.8
2018-Oct-16 21:46 153 4 gusting 6 12.8
2018-Oct-16 21:01 139 5 gusting 7 12.8
2018-Oct-16 20:46 137 4 gusting 6 13.3
2018-Oct-16 20:16 150 4 gusting 7 13.3
2018-Oct-16 19:46 171 5 gusting 7 13.9
2018-Oct-16 18:31 168 3 gusting 6 14.4
2018-Oct-16 18:01 180 3 gusting 6 14.4
2018-Oct-16 17:46 160 3 gusting 7 14.4
2018-Oct-16 17:31 225 2 gusting 6 15.0
2018-Oct-16 17:16 212 2 gusting 6 15.0
2018-Oct-16 16:31 207 2 gusting 4 15.6
2018-Oct-16 15:46 199 1 gusting 3 16.1
2018-Oct-16 15:31 212 2 gusting 5 16.1
2018-Oct-16 15:16 216 3 gusting 6 16.7
2018-Oct-16 15:01 213 2 gusting 6 17.2
2018-Oct-16 14:46 189 2 gusting 6 17.8
2018-Oct-16 14:31 211 2 gusting 6 17.8
2018-Oct-16 13:46 216 4 gusting 6 16.7
2018-Oct-16 13:31 250 3 gusting 5 16.7
2018-Oct-16 13:16 219 2 gusting 6 16.7
2018-Oct-16 13:01 242 2 gusting 5 16.7
2018-Oct-16 12:31 235 3 gusting 6 16.1
2018-Oct-16 12:16 224 3 gusting 5 16.1
2018-Oct-16 11:16 217 3 gusting 5 15.6
2018-Oct-16 10:46 213 2 gusting 4 15.6
2018-Oct-16 10:31 213 3 gusting 5 15.6
2018-Oct-16 10:16 217 2 gusting 5 15.0
2018-Oct-16 09:46 217 2 gusting 5 14.4
2018-Oct-16 08:16 336 0 gusting 1 13.3
2018-Oct-16 08:01 336 1 gusting 3 13.3
2018-Oct-16 07:46 336 12.8
2018-Oct-16 07:31 336 12.2
2018-Oct-16 06:31 336 0 gusting 2 11.7
2018-Oct-16 05:01 336 0 gusting 1 11.7
2018-Oct-16 04:31 336 11.7
2018-Oct-16 04:16 336 12.2
2018-Oct-16 03:01 335 2 gusting 3 12.8
2018-Oct-16 02:46 290 1 gusting 3 13.3
2018-Oct-16 02:16 290 1 gusting 3 13.3
2018-Oct-16 02:01 290 0 gusting 1 13.9
2018-Oct-16 01:46 290 1 gusting 3 13.9
2018-Oct-16 01:31 290 1 gusting 4 13.9
2018-Oct-16 00:46 271 2 gusting 6 13.9
2018-Oct-16 00:31 118 0 gusting 2 14.4
2018-Oct-16 00:01 118 1 gusting 3 13.9
2018-Oct-15 23:46 118 0 gusting 2 13.9
2018-Oct-15 23:16 117 3 gusting 6 13.9
2018-Oct-15 23:01 082 2 gusting 5 13.9
2018-Oct-15 22:46 050 1 gusting 3 13.9
2018-Oct-15 20:46 039 1 gusting 3 12.2
2018-Oct-15 20:31 038 1 gusting 2 12.2
2018-Oct-15 20:16 038 2 gusting 3 12.8
2018-Oct-15 20:01 038 1 gusting 2 12.8